Regional Weather Roundup
Issued by NWS New Orleans/Baton Rouge, LA

Home | Current Version | Previous Version | Text Only | Print | Product List | Glossary Off
Versions: 1 2 3 4 5 6 7 8 9 10 11 12 13 14 15 16 17 18 19 20 21 22 23 24 25 26 27 28 29 30 31 32 33 34 35 36 37 38 39 40 41 42 43 44 45 46 47 48 49 50

487
ASUS44 KLIX 201810
RWRLIX
NEW ORLEANS REGIONAL WEATHER ROUNDUP
NATIONAL WEATHER SERVICE NEW ORLEANS LA
1200 PM CST THU NOV 20 2014

NOTE: "FAIR" INDICATES FEW OR NO CLOUDS BELOW 12,000 FEET WITH NO
      SIGNIFICANT WEATHER AND/OR OBSTRUCTIONS TO VISIBILITY.
      SKY/WX - SKY CONDITION AND SIGNIFICANT WEATHER.
      TMP - AIR TEMPERATURE.     DP    - DEWPOINT TEMPERATURE.
      RH  - RELATIVE HUMIDITY.   PRES  - PRESSURE.
      HI  - HEAT INDEX.          WCI   - WIND CHILL INDEX.

*  THESE STATIONS ARE NOT NWS OR FAA STATIONS AND ARE NOT UNDER
   NWS QUALITY CONTROL.

LAZ038-040-048-061>063-065>067-069-201900-
SOUTHEAST LOUISIANA

CITY           SKY/WX    TMP DP  RH WIND       PRES   REMARKS
N.O. AUDUBON     N/A     67  47  48 MISG        N/A
6HR MIN TEMP:  49; 6HR MAX TEMP:  72;

N.O. INTL ARPT MOSUNNY   66  45  46 SE8       30.26F
6HR MIN TEMP:  45; 6HR MAX TEMP:  69;

N.O. LAKEFRONT PTSUNNY   69  43  38 NW3       30.26F
6HR MIN TEMP:  47; 6HR MAX TEMP:  69;

N.O. DOWNTOWN* MOCLDY    70  45  40 SE6       30.26F
6HR MIN TEMP:  54; 6HR MAX TEMP:  70;

SLIDELL        SUNNY     68  47  46 S7        30.26F
6HR MIN TEMP:  33; 6HR MAX TEMP:  68;

BATON ROUGE    MOSUNNY   67  46  47 S3        30.22F
6HR MIN TEMP:  39; 6HR MAX TEMP:  69;

BOOTHVILLE     PTSUNNY   65  42  43 S7        30.29F
6HR MIN TEMP:  51; 6HR MAX TEMP:  66;

BELLE CHASSE   PTSUNNY   70  44  39 SE7       30.26F
6HR MIN TEMP:  38; 6HR MAX TEMP:  70;

BOGALUSA*        N/A     68  45  43 CALM      30.26F
6HR MIN TEMP:  34; 6HR MAX TEMP:  70;

NEW ROADS*       N/A     70  47  44 S10       30.22F
6HR MIN TEMP:  41; 6HR MAX TEMP:  70;

GONZALES*      MOCLDY    70  47  43 SE7       30.23F
6HR MIN TEMP:  39; 6HR MAX TEMP:  70;

HAMMOND*       SUNNY     72  43  35 SW6       30.25F
HOUMA*         MOSUNNY   70  46  43 SE10      30.26F
PORT FOURCHON* CLEAR     66  48  52 SE9       30.30F

$$

MSZ070-080>082-201900-
SOUTHERN MISSISSIPPI

CITY           SKY/WX    TMP DP  RH WIND       PRES   REMARKS
MCCOMB         PTSUNNY   67  46  47 SW8       30.23F
6HR MIN TEMP:  37; 6HR MAX TEMP:  69;

GULFPORT       SUNNY     63  43  48 S9        30.27F
6HR MIN TEMP:  35; 6HR MAX TEMP:  64;

BILOXI         MOSUNNY   65  47  53 SW9       30.27F
6HR MIN TEMP:  37; 6HR MAX TEMP:  65;

PASCAGOULA     SUNNY     66  44  45 S10       30.27F
6HR MIN TEMP:  29; 6HR MAX TEMP:  67;

STENNIS ARPT*  MOSUNNY   68  41  37 SW6       30.26F

$$

COASTAL OBSERVATIONS
LAKE AND NEARSHORE STATIONS

STATION/POSITION TIME  TEMP    WIND        PRES    WAVE
                       AIR SEA DIR/SP/G            HT/PER
                 (UTC) (F)     (DEG/KT/KT) (MB)    (FT/S)
PASCAGOULA       1800   61     190/  4/  6 1024.8
WAVELAND YACHT   1800   58     170/  9/ 11 1024.3
GRAND ISLE       1800   64 56  140/  7/ 10 1025.7
SOUTHWEST PASS   1800   78 73              1025.7
NEW CANAL        1800   64 53   10/  3/  3 1025.0
SHELL BEACH      1800   64 48  150/  8/ 11 1024.9

OFFSHORE STATIONS

STATION/POSITION TIME  TEMP    WIND        PRES    WAVE
                       AIR SEA DIR/SP/G            HT/PER
                 (UTC) (F)     (DEG/KT/KT) (MB)    (FT/S)
64 S DAUPHIN ISL 1656   63 74   70/  4/ 10 1026.2    1/ 5

$$




USA.gov is the U.S. government's official web portal to all federal, state and local government web resources and services.